Time,TemperatureF,DewpointF,PressureIn,WindDirection,WindDirectionDegrees,WindSpeedMPH,WindSpeedGustMPH,Humidity,HourlyPrecipIn,Conditions,Clouds,dailyrainin,SoftwareType,DateUTC
2013-04-08 00:02:00,49.0,40.0,-100.00,ESE,110,7.0,12.0,71,0.00,,,-99.99,,2013-04-08 05:02:00,
2013-04-08 00:12:00,49.0,40.0,-100.00,ESE,110,7.0,14.0,72,0.00,,,-99.99,,2013-04-08 05:12:00,
2013-04-08 00:22:00,49.0,40.0,-100.00,ESE,110,7.0,14.0,72,0.00,,,-99.99,,2013-04-08 05:22:00,
2013-04-08 00:32:00,49.0,41.0,-100.00,SE,130,7.0,11.0,72,0.00,,,-99.99,,2013-04-08 05:32:00,
2013-04-08 00:42:00,50.0,41.0,-100.00,ESE,105,9.0,14.0,71,0.00,,,-99.99,,2013-04-08 05:42:00,
2013-04-08 00:52:00,50.0,41.0,-100.00,ESE,105,9.0,14.0,71,0.00,,,-99.99,,2013-04-08 05:52:00,
2013-04-08 01:02:00,50.0,40.0,-100.00,East,100,7.0,-999.0,69,0.00,,,-99.99,,2013-04-08 06:02:00,
2013-04-08 01:12:00,51.0,40.0,-100.00,SE,125,7.0,13.0,68,0.00,,,-99.99,,2013-04-08 06:12:00,
2013-04-08 01:22:00,51.0,40.0,-100.00,SE,130,6.0,14.0,67,0.00,,,-99.99,,2013-04-08 06:22:00,
2013-04-08 01:32:00,51.0,40.0,-100.00,East,95,6.0,13.0,67,0.00,,,-99.99,,2013-04-08 06:32:00,
2013-04-08 01:42:00,51.0,40.0,-100.00,SE,130,6.0,13.0,67,0.00,,,-99.99,,2013-04-08 06:42:00,
2013-04-08 01:52:00,51.0,40.0,-100.00,SE,125,8.0,14.0,67,0.00,,,-99.99,,2013-04-08 06:52:00,
2013-04-08 02:02:00,51.0,40.0,-100.00,ESE,105,7.0,16.0,67,0.00,,,-99.99,,2013-04-08 07:02:00,
2013-04-08 02:12:00,51.0,41.0,-100.00,ESE,115,8.0,15.0,67,0.00,,,-99.99,,2013-04-08 07:12:00,
2013-04-08 02:22:00,51.0,41.0,-100.00,ESE,115,8.0,15.0,67,0.00,,,-99.99,,2013-04-08 07:22:00,
2013-04-08 02:33:00,51.0,41.0,-100.00,ESE,115,8.0,15.0,67,0.00,,,-99.99,,2013-04-08 07:33:00,
2013-04-08 03:02:00,50.0,41.0,-100.00,WNW,285,6.0,11.0,70,0.00,,,-99.99,,2013-04-08 08:02:00,
2013-04-08 03:12:00,50.0,41.0,-100.00,WNW,285,6.0,11.0,70,0.00,,,-99.99,,2013-04-08 08:12:00,
2013-04-08 03:22:00,50.0,41.0,-100.00,WNW,285,6.0,11.0,70,0.00,,,-99.99,,2013-04-08 08:22:00,
2013-04-08 03:32:00,50.0,41.0,-100.00,ESE,115,4.0,6.0,71,0.00,,,-99.99,,2013-04-08 08:32:00,
2013-04-08 03:42:00,49.0,41.0,-100.00,ESE,115,1.0,4.0,71,0.00,,,-99.99,,2013-04-08 08:42:00,
2013-04-08 03:52:00,49.0,41.0,-100.00,ENE,70,1.0,2.0,72,0.00,,,-99.99,,2013-04-08 08:52:00,
2013-04-08 04:02:00,48.0,41.0,-100.00,East,95,2.0,3.0,74,0.00,,,-99.99,,2013-04-08 09:02:00,
2013-04-08 04:12:00,48.0,42.0,-100.00,East,95,2.0,5.0,78,0.30,,,-99.99,,2013-04-08 09:12:00,
2013-04-08 04:22:00,47.0,43.0,-100.00,ESE,120,2.0,6.0,83,0.23,,,-99.99,,2013-04-08 09:22:00,
2013-04-08 04:33:00,47.0,43.0,-100.00,ENE,65,2.0,4.0,86,0.01,,,-99.99,,2013-04-08 09:33:00,
2013-04-08 04:43:00,46.0,43.0,-100.00,East,85,3.0,4.0,88,0.17,,,-99.99,,2013-04-08 09:43:00,
2013-04-08 04:52:00,46.0,44.0,-100.00,East,100,5.0,6.0,90,0.28,,,-99.99,,2013-04-08 09:52:00,
2013-04-08 05:03:00,46.0,44.0,-100.00,East,85,2.0,6.0,91,0.01,,,-99.99,,2013-04-08 10:03:00,
2013-04-08 05:13:00,46.0,44.0,-100.00,East,80,4.0,7.0,92,0.18,,,-99.99,,2013-04-08 10:13:00,
2013-04-08 05:23:00,46.0,44.0,-100.00,East,90,5.0,9.0,93,0.08,,,-99.99,,2013-04-08 10:23:00,
2013-04-08 05:33:00,46.0,44.0,-100.00,East,100,7.0,11.0,94,0.21,,,-99.99,,2013-04-08 10:33:00,
2013-04-08 05:42:00,46.0,44.0,-100.00,ENE,60,4.0,10.0,94,0.50,,,-99.99,,2013-04-08 10:42:00,
2013-04-08 05:52:00,46.0,44.0,-100.00,ENE,60,4.0,10.0,94,0.50,,,-99.99,,2013-04-08 10:52:00,
2013-04-08 06:02:00,46.0,44.0,-100.00,East,90,9.0,13.0,94,0.08,,,-99.99,,2013-04-08 11:02:00,
2013-04-08 06:12:00,45.0,44.0,-100.00,East,100,6.0,12.0,95,0.04,,,-99.99,,2013-04-08 11:12:00,
2013-04-08 06:22:00,45.0,44.0,-100.00,ESE,110,7.0,11.0,95,0.03,,,-99.99,,2013-04-08 11:22:00,
2013-04-08 06:32:00,45.0,44.0,-100.00,ESE,110,9.0,13.0,95,0.03,,,-99.99,,2013-04-08 11:32:00,
2013-04-08 06:42:00,45.0,44.0,-100.00,East,95,9.0,15.0,95,0.01,,,-99.99,,2013-04-08 11:42:00,
2013-04-08 06:52:00,45.0,44.0,-100.00,East,100,7.0,14.0,95,0.00,,,-99.99,,2013-04-08 11:52:00,
2013-04-08 07:03:00,45.0,44.0,-100.00,ESE,105,5.0,13.0,95,0.00,,,-99.99,,2013-04-08 12:03:00,
2013-04-08 07:12:00,45.0,44.0,-100.00,ESE,105,4.0,9.0,95,0.00,,,-99.99,,2013-04-08 12:12:00,
2013-04-08 07:22:00,45.0,44.0,-100.00,SE,135,3.0,6.0,95,0.00,,,-99.99,,2013-04-08 12:22:00,
2013-04-08 07:33:00,45.0,44.0,-100.00,ESE,110,4.0,9.0,95,0.00,,,-99.99,,2013-04-08 12:33:00,
2013-04-08 07:42:00,45.0,44.0,-100.00,SSE,155,3.0,7.0,95,0.00,,,-99.99,,2013-04-08 12:42:00,
2013-04-08 07:52:00,45.0,44.0,-100.00,SE,140,3.0,6.0,95,0.00,,,-99.99,,2013-04-08 12:52:00,
2013-04-08 08:03:00,45.0,44.0,-100.00,ESE,105,2.0,6.0,95,0.00,,,-99.99,,2013-04-08 13:03:00,
2013-04-08 08:12:00,45.0,44.0,-100.00,ESE,110,1.0,4.0,95,0.00,,,-99.99,,2013-04-08 13:12:00,
2013-04-08 08:22:00,45.0,44.0,-100.00,ESE,105,2.0,6.0,95,0.00,,,-99.99,,2013-04-08 13:22:00,
2013-04-08 08:32:00,45.0,44.0,-100.00,ESE,105,2.0,5.0,95,0.00,,,-99.99,,2013-04-08 13:32:00,
2013-04-08 08:42:00,46.0,45.0,-100.00,East,85,3.0,5.0,95,0.00,,,-99.99,,2013-04-08 13:42:00,
2013-04-08 08:52:00,46.0,45.0,-100.00,ESE,115,2.0,6.0,95,0.00,,,-99.99,,2013-04-08 13:52:00,
2013-04-08 09:02:00,46.0,45.0,-100.00,SE,135,2.0,7.0,95,0.00,,,-99.99,,2013-04-08 14:02:00,
2013-04-08 09:12:00,46.0,45.0,-100.00,SE,135,2.0,4.0,95,0.00,,,-99.99,,2013-04-08 14:12:00,
2013-04-08 09:22:00,47.0,46.0,-100.00,SE,145,4.0,6.0,95,0.00,,,-99.99,,2013-04-08 14:22:00,
2013-04-08 09:32:00,47.0,46.0,-100.00,SSE,160,5.0,7.0,95,0.00,,,-99.99,,2013-04-08 14:32:00,
2013-04-08 09:42:00,48.0,47.0,-100.00,SSE,160,4.0,6.0,95,0.00,,,-99.99,,2013-04-08 14:42:00,
2013-04-08 09:52:00,49.0,47.0,-100.00,SSE,160,4.0,7.0,95,0.00,,,-99.99,,2013-04-08 14:52:00,
2013-04-08 10:02:00,49.0,48.0,-100.00,SSE,160,6.0,9.0,95,0.00,,,-99.99,,2013-04-08 15:02:00,
2013-04-08 10:12:00,49.0,48.0,-100.00,SSE,165,5.0,9.0,95,0.00,,,-99.99,,2013-04-08 15:12:00,
2013-04-08 10:22:00,49.0,48.0,-100.00,SSW,195,7.0,10.0,95,0.00,,,-99.99,,2013-04-08 15:22:00,
2013-04-08 10:33:00,49.0,48.0,-100.00,South,190,7.0,11.0,96,0.00,,,-99.99,,2013-04-08 15:33:00,
2013-04-08 10:43:00,49.0,49.0,-100.00,SW,220,7.0,9.0,96,0.00,,,-99.99,,2013-04-08 15:43:00,
2013-04-08 10:52:00,49.0,49.0,-100.00,SW,220,7.0,9.0,96,0.00,,,-99.99,,2013-04-08 15:52:00,
2013-04-08 11:03:00,50.0,49.0,-100.00,WSW,250,5.0,9.0,96,0.00,,,-99.99,,2013-04-08 16:03:00,
2013-04-08 11:13:00,50.0,49.0,-100.00,WSW,250,3.0,8.0,96,0.00,,,-99.99,,2013-04-08 16:13:00,
2013-04-08 11:22:00,50.0,49.0,-100.00,SW,230,4.0,7.0,96,0.00,,,-99.99,,2013-04-08 16:22:00,
2013-04-08 11:32:00,50.0,49.0,-100.00,SW,230,4.0,7.0,96,0.00,,,-99.99,,2013-04-08 16:32:00,
2013-04-08 11:42:00,50.0,49.0,-100.00,SW,230,4.0,7.0,96,0.00,,,-99.99,,2013-04-08 16:42:00,
2013-04-08 11:52:00,52.0,51.0,-100.00,West,270,4.0,6.0,96,0.00,,,-99.99,,2013-04-08 16:52:00,
2013-04-08 12:03:00,52.0,51.0,-100.00,West,265,4.0,7.0,96,0.00,,,-99.99,,2013-04-08 17:03:00,
2013-04-08 12:12:00,53.0,52.0,-100.00,West,270,4.0,6.0,96,0.00,,,-99.99,,2013-04-08 17:12:00,
2013-04-08 12:22:00,53.0,51.0,-100.00,NW,315,4.0,7.0,95,0.00,,,-99.99,,2013-04-08 17:22:00,
2013-04-08 12:32:00,53.0,52.0,-100.00,WNW,285,4.0,7.0,95,0.00,,,-99.99,,2013-04-08 17:32:00,
2013-04-08 12:43:00,54.0,53.0,-100.00,NW,320,3.0,7.0,94,0.00,,,-99.99,,2013-04-08 17:43:00,
2013-04-08 12:52:00,55.0,53.0,-100.00,NNW,340,6.0,10.0,90,0.00,,,-99.99,,2013-04-08 17:52:00,
2013-04-08 13:02:00,56.0,53.0,-100.00,NNW,345,6.0,9.0,86,0.00,,,-99.99,,2013-04-08 18:02:00,
2013-04-08 13:12:00,58.0,53.0,-100.00,NW,320,6.0,12.0,82,0.00,,,-99.99,,2013-04-08 18:12:00,
2013-04-08 13:22:00,57.0,51.0,-100.00,North,0,6.0,10.0,80,0.00,,,-99.99,,2013-04-08 18:22:00,
2013-04-08 13:32:00,58.0,51.0,-100.00,ENE,60,4.0,9.0,78,0.00,,,-99.99,,2013-04-08 18:32:00,
2013-04-08 13:42:00,58.0,51.0,-100.00,NNE,25,4.0,8.0,77,0.00,,,-99.99,,2013-04-08 18:42:00,
2013-04-08 13:52:00,58.0,52.0,-100.00,NNE,25,4.0,8.0,79,0.00,,,-99.99,,2013-04-08 18:52:00,
2013-04-08 14:02:00,58.0,51.0,-100.00,NE,35,4.0,10.0,77,0.00,,,-99.99,,2013-04-08 19:02:00,
2013-04-08 14:12:00,59.0,52.0,-100.00,North,0,4.0,9.0,77,0.00,,,-99.99,,2013-04-08 19:12:00,
2013-04-08 14:22:00,59.0,51.0,-100.00,NNW,330,6.0,7.0,75,0.00,,,-99.99,,2013-04-08 19:22:00,
2013-04-08 14:33:00,60.0,51.0,-100.00,ENE,65,4.0,6.0,73,0.00,,,-99.99,,2013-04-08 19:33:00,
2013-04-08 14:42:00,59.0,51.0,-100.00,North,10,4.0,7.0,73,0.00,,,-99.99,,2013-04-08 19:42:00,
2013-04-08 14:52:00,59.0,51.0,-100.00,ENE,60,6.0,9.0,74,0.00,,,-99.99,,2013-04-08 19:52:00,
2013-04-08 15:02:00,59.0,51.0,-100.00,NE,55,4.0,8.0,75,0.00,,,-99.99,,2013-04-08 20:02:00,
2013-04-08 15:12:00,59.0,51.0,-100.00,NNE,20,6.0,9.0,74,0.00,,,-99.99,,2013-04-08 20:12:00,
2013-04-08 15:22:00,62.0,52.0,-100.00,NNE,25,3.0,7.0,70,0.00,,,-99.99,,2013-04-08 20:22:00,
2013-04-08 15:33:00,61.0,51.0,-100.00,NNE,30,4.0,10.0,71,0.00,,,-99.99,,2013-04-08 20:33:00,
2013-04-08 15:43:00,63.0,52.0,-100.00,North,0,2.0,5.0,67,0.00,,,-99.99,,2013-04-08 20:43:00,
2013-04-08 15:52:00,62.0,51.0,-100.00,North,5,7.0,9.0,67,0.00,,,-99.99,,2013-04-08 20:52:00,
2013-04-08 16:02:00,64.0,52.0,-100.00,North,0,4.0,9.0,64,0.00,,,-99.99,,2013-04-08 21:02:00,
2013-04-08 16:12:00,63.0,51.0,-100.00,NNE,15,4.0,9.0,66,0.00,,,-99.99,,2013-04-08 21:12:00,
2013-04-08 16:22:00,62.0,51.0,-100.00,North,0,4.0,8.0,65,0.00,,,-99.99,,2013-04-08 21:22:00,
2013-04-08 16:32:00,62.0,52.0,-100.00,NE,45,6.0,9.0,69,0.00,,,-99.99,,2013-04-08 21:32:00,
2013-04-08 16:43:00,63.0,52.0,-100.00,NE,35,5.0,12.0,68,0.00,,,-99.99,,2013-04-08 21:43:00,
2013-04-08 16:52:00,63.0,52.0,-100.00,NNE,30,9.0,11.0,67,0.00,,,-99.99,,2013-04-08 21:52:00,
2013-04-08 17:03:00,62.0,52.0,-100.00,NNE,25,7.0,12.0,69,0.00,,,-99.99,,2013-04-08 22:03:00,
2013-04-08 17:13:00,61.0,51.0,-100.00,NE,40,7.0,14.0,70,0.00,,,-99.99,,2013-04-08 22:13:00,
2013-04-08 17:22:00,60.0,51.0,-100.00,NNE,15,9.0,15.0,72,0.00,,,-99.99,,2013-04-08 22:22:00,
2013-04-08 17:32:00,60.0,51.0,-100.00,NNE,15,9.0,15.0,72,0.00,,,-99.99,,2013-04-08 22:32:00,
2013-04-08 17:43:00,58.0,51.0,-100.00,NE,35,9.0,16.0,75,0.00,,,-99.99,,2013-04-08 22:43:00,
2013-04-08 17:52:00,58.0,51.0,-100.00,NE,35,9.0,16.0,75,0.00,,,-99.99,,2013-04-08 22:52:00,
2013-04-08 18:02:00,58.0,50.0,-100.00,NNE,15,9.0,16.0,76,0.00,,,-99.99,,2013-04-08 23:02:00,
2013-04-08 18:12:00,57.0,50.0,-100.00,NE,45,7.0,16.0,76,0.00,,,-99.99,,2013-04-08 23:12:00,
2013-04-08 18:22:00,57.0,50.0,-100.00,NE,45,7.0,16.0,76,0.00,,,-99.99,,2013-04-08 23:22:00,
2013-04-08 18:32:00,56.0,50.0,-100.00,NNE,15,9.0,17.0,78,0.00,,,-99.99,,2013-04-08 23:32:00,
2013-04-08 18:42:00,56.0,49.0,-100.00,NE,35,10.0,16.0,79,0.00,,,-99.99,,2013-04-08 23:42:00,
2013-04-08 18:52:00,55.0,49.0,-100.00,NE,50,10.0,16.0,80,0.00,,,-99.99,,2013-04-08 23:52:00,
2013-04-08 19:02:00,54.0,49.0,-100.00,NNE,30,9.0,15.0,81,0.00,,,-99.99,,2013-04-09 00:02:00,
2013-04-08 19:12:00,54.0,49.0,-100.00,NE,35,6.0,13.0,82,0.00,,,-99.99,,2013-04-09 00:12:00,
2013-04-08 19:22:00,54.0,49.0,-100.00,NE,45,10.0,14.0,83,0.00,,,-99.99,,2013-04-09 00:22:00,
2013-04-08 19:32:00,53.0,48.0,-100.00,NE,40,9.0,14.0,84,0.00,,,-99.99,,2013-04-09 00:32:00,
2013-04-08 19:42:00,53.0,49.0,-100.00,NE,35,7.0,12.0,85,0.00,,,-99.99,,2013-04-09 00:42:00,
2013-04-08 19:52:00,52.0,48.0,-100.00,NE,35,9.0,13.0,86,0.00,,,-99.99,,2013-04-09 00:52:00,
2013-04-08 20:02:00,51.0,48.0,-100.00,NE,45,7.0,11.0,86,0.00,,,-99.99,,2013-04-09 01:02:00,
2013-04-08 20:12:00,51.0,47.0,-100.00,NE,40,8.0,12.0,87,0.00,,,-99.99,,2013-04-09 01:12:00,
2013-04-08 20:22:00,51.0,47.0,-100.00,NNE,30,8.0,15.0,87,0.00,,,-99.99,,2013-04-09 01:22:00,
2013-04-08 20:33:00,50.0,47.0,-100.00,NE,35,7.0,12.0,88,0.00,,,-99.99,,2013-04-09 01:33:00,
2013-04-08 20:42:00,50.0,47.0,-100.00,NE,45,7.0,12.0,88,0.00,,,-99.99,,2013-04-09 01:42:00,
2013-04-08 20:52:00,50.0,47.0,-100.00,NE,50,7.0,12.0,88,0.00,,,-99.99,,2013-04-09 01:52:00,
2013-04-08 21:02:00,50.0,47.0,-100.00,NNE,30,7.0,14.0,89,0.00,,,-99.99,,2013-04-09 02:02:00,
2013-04-08 21:12:00,49.0,46.0,-100.00,NNE,30,9.0,15.0,89,0.00,,,-99.99,,2013-04-09 02:12:00,
2013-04-08 21:22:00,49.0,46.0,-100.00,NNE,15,9.0,16.0,89,0.00,,,-99.99,,2013-04-09 02:22:00,
2013-04-08 21:32:00,49.0,46.0,-100.00,NE,40,11.0,17.0,89,0.00,,,-99.99,,2013-04-09 02:32:00,
2013-04-08 21:43:00,48.0,45.0,-100.00,NNE,30,7.0,17.0,89,0.00,,,-99.99,,2013-04-09 02:43:00,
2013-04-08 21:52:00,48.0,45.0,-100.00,NNE,25,9.0,17.0,89,0.00,,,-99.99,,2013-04-09 02:52:00,
2013-04-08 22:02:00,48.0,45.0,-100.00,NNE,25,9.0,16.0,89,0.00,,,-99.99,,2013-04-09 03:02:00,
2013-04-08 22:12:00,47.0,44.0,-100.00,North,0,9.0,16.0,89,0.00,,,-99.99,,2013-04-09 03:12:00,
2013-04-08 22:21:00,47.0,44.0,-100.00,NE,35,9.0,16.0,89,0.00,,,-99.99,,2013-04-09 03:21:00,
2013-04-08 22:33:00,47.0,44.0,-100.00,NE,40,10.0,17.0,88,0.00,,,-99.99,,2013-04-09 03:33:00,
2013-04-08 22:43:00,47.0,44.0,-100.00,NE,50,10.0,17.0,88,0.00,,,-99.99,,2013-04-09 03:43:00,
2013-04-08 22:52:00,46.0,43.0,-100.00,NE,50,11.0,14.0,89,0.00,,,-99.99,,2013-04-09 03:52:00,
2013-04-08 23:03:00,46.0,43.0,-100.00,NE,45,7.0,19.0,89,0.00,,,-99.99,,2013-04-09 04:03:00,
2013-04-08 23:13:00,46.0,43.0,-100.00,ENE,60,9.0,16.0,89,0.00,,,-99.99,,2013-04-09 04:13:00,
2013-04-08 23:23:00,46.0,43.0,-100.00,NE,35,9.0,16.0,88,0.00,,,-99.99,,2013-04-09 04:23:00,
2013-04-08 23:32:00,45.0,42.0,-100.00,NE,50,9.0,16.0,89,0.00,,,-99.99,,2013-04-09 04:32:00,
2013-04-08 23:42:00,45.0,42.0,-100.00,NE,40,11.0,15.0,89,0.00,,,-99.99,,2013-04-09 04:42:00,
2013-04-08 23:52:00,45.0,42.0,-100.00,NE,40,11.0,15.0,89,0.00,,,-99.99,,2013-04-09 04:52:00,